星链-31083 (STARLINK-31083 )

导读

STARLINK-31083是美国太空探索技术公司星链卫星互联网项目的一员,于2023年12月29日发射入轨,属于星链低地球轨道卫星组网星座的补充卫星。星链项目旨在为全球提供覆盖偏远地区的高速互联网服务,该卫星加入后进一步完善了星链系统的全球网络覆盖与服务容量。

基本信息
目录编号:
58670
目录名称:
STARLINK-31083
国际标识:
2023-211D
轨道中心:
EARTH
卫星名称:
星链-31083
卫星全名:
星链-31083 (STARLINK-31083 )
卫星状态:
在轨 (已飞行980 天)
发射日期:
2023-12-29 UTC
国别 :
美国 (US)
星等 :
--
轨道信息
数据来源 国际轨道数据 AOE轨道数据
星历时间 2026-09-04T10:18:31+0800
18小时前
查看轨道信息
2026-09-04T00:00:00+0800
1天前
查看轨道信息
半长轴 6861.172km 6861.203km
偏心率 0.0001506 0.0001407
轨道倾角 43.001° 43.001°
近地点辐角 267.231° 265.027°
升交点赤经 157.385° 159.815°
平近点角 92.837° 250.118°
近地点 482.001km 482.1km
远地点 484.069km 484.032km
周期 94.266分钟 94.267分钟
每日圈数 15.275848 15.275744
详细信息
固有亮度:
5
最大亮度:
0.3
卫星平台:
Starlink v2.0 mini
覆盖范围:
全球
运营商:
太空探索技术公司
运营商所在国:
美国
制造商(研发单位):
太空探索技术公司
制造商所在国:
美国
使用方式:
暂无
卫星简介
星链(Starlink)计划是由太空探索技术公司(SpaceX)提出的一个巨型低轨卫星互联网星座项目,计划在2019年至2024年间在太空搭建由约1.2万颗卫星组成的“星链”网络,其中1584颗将部署在地球上空550千米处的近地轨道,并从2020年开始工作。该卫星仍在工作。
2D轨道图
3D轨道图
轨道高度分析图
轨道倾角分析图
轨道综合分析图
查看轨道综合分析图
交会数据列表
事件ID 空间交会对象 最接近时刻(TCA) 交会距离 交会风险概率(CRP) 交会风险指数(CRI) 操作
CDM_260907-023505-867006-646821
2026-09-07T
02:35:11+0000
1.384 km
极远距离
6.70449E-6 低风险 0.52
CDM_260907-010105-867006-646821
2026-09-07T
01:01:02+0000
1.562 km
极远距离
4.527153E-6 低风险 0.48
CDM_260907-065405-867006-299721
2026-09-07T
06:54:23+0000
1.602 km
极远距离
2.678808E-6 低风险 0.44
CDM_260903-212705-867006-435221
2026-09-03T
21:27:29+0000
2.535 km
极远距离
1.529841E-6 低风险 0.39
CDM_260906-232605-867006-646821
2026-09-06T
23:26:53+0000
2.740 km
极远距离
1.205687E-6 低风险 0.37